Regional Weather Roundup
Issued by NWS Wakefield, VA

Home | Current Version | Previous Version | Text Only | Print | Product List | Glossary Off
Versions: 1 2 3 4 5 6 7 8 9 10 11 12 13 14 15 16 17 18 19 20 21 22 23 24 25 26 27 28 29 30 31 32 33 34 35 36 37 38 39 40 41 42 43 44 45 46 47 48 49 50

915
ASUS41 KAKQ 100715
RWRAKQ

REGIONAL WEATHER ROUNDUP
NATIONAL WEATHER SERVICE WAKEFIELD VA
200 AM EST WED FEB 10 2016

Note: "fair" indicates few or no clouds below 12,000 feet with no
significant weather and/or obstructions to visibility. * = Denotes
station may not report precipitation (e.g., rain,snow,etc.),
thunder or fog.

VAZ042-051-052>054-056-100800-
NORTHERN VIRGINIA

CITY           SKY/WX    TMP DP  RH WIND       PRES   REMARKS
WASH NATIONAL  CLOUDY    31  20  63 NW14G24   29.72R WCI  21
DULLES         CLOUDY    29  20  69 NW14      29.70S WCI  18
FORT BELVOIR   CLOUDY    31  20  63 NW12G21   29.72R WCI  21
QUANTICO       CLOUDY    34  20  56 N7        29.73R
FREDERICKSBRG* CLOUDY    32  22  67 NW8       29.72R
STAFFORD*      CLOUDY    32  19  59 W7        29.75S
WARRENTON      FLURRIES  31  23  73 W6        29.71R
CULPEPER*      CLOUDY    30  18  60 NW8       29.72S
MANASSAS*      CLOUDY    30  23  74 NW9       29.72R
LEESBURG*      CLOUDY    30  27  86 W12G20    29.70S WCI  21
WINCHESTER     CLOUDY    30  18  59 W9        29.69S
FRONT ROYAL*   CLOUDY    30  14  51 SW9       29.69S
LURAY*         PTSUNNY   28  14  54 SW8G20    29.70S
$$

VAZ048-049-060>072-079>083-100800-
CENTRAL AND SOUTH CENTRAL VIRGINIA

CITY           SKY/WX    TMP DP  RH WIND       PRES   REMARKS
RICHMOND       FLURRIES  31  17  56 W10G18    29.73R WCI  22
CHESTERFIELD*  CLOUDY    30   7  37 W8        29.74S
PETERSBURG*    CLOUDY    31  11  44 SW10G16   29.75S WCI  22
HANOVER        FLURRIES  30  22  72 W8        29.74R
TAPPAHANNOCK*  FLURRIES  32  31  96 CALM      29.72S
QUINTON*       CLOUDY    32  18  55 W6        29.72R
CHARLOTTSVILLE CLOUDY    30  14  51 VRB5      29.71S
GORDONSVILLE*  CLOUDY    30  18  61 W3        29.71S
ORANGE*        CLOUDY    32  19  59 SW9       29.73S
LOUISA*        CLOUDY    30  21  69 W13       29.70S WCI  20
BUMPASS*       CLOUDY    30  24  78 W3        29.72R
FARMVILLE*     CLOUDY    29  14  54 SW3       29.74R
CREWE*         FAIR      27  14  59 W5        29.74S
FORT PICKETT*  FAIR      26  12  55 W7        29.75R
CHASE CITY*    FAIR      27  10  48 W7        29.77F
CLARKSVILLE*   FAIR      27  12  54 W6        29.79S
SOUTH HILL*    FAIR      27  12  54 W6        29.83S
LAWRENCEVILLE* FAIR      28  12  52 W3        29.77R
EMPORIA*       FAIR      28  12  50 SW6       29.80R
$$

VAZ088>098-100800-
SOUTHEAST VIRGINIA

CITY           SKY/WX    TMP DP  RH WIND       PRES   REMARKS
NORFOLK        FAIR      33  16  49 W10       29.73R WCI  25
VIRGINIA BEACH MOCLDY    36  17  46 W14       29.73R
NORFOLK NAVAL  FAIR      33  16  49 W14G24    29.75R WCI  23
WEST POINT*    CLOUDY    31  24  75 W12       29.75R WCI  21
SALUDA*        CLOUDY    32  24  73 W7        29.72R
NEWPORT NEWS   FAIR      31  17  56 W16G22    29.74R WCI  20
LANGLEY AFB    FAIR      32  18  57 W13       29.73R WCI  22
FORT EUSTIS    FAIR      31  15  51 W8        29.72R
WILLIAMSBURG*  MOCLDY    34  19  55 W10G17    29.75R
HR EXEC AP*    FAIR      30  16  55 W8        29.77R
FRANKLIN*      FAIR      30  14  51 W8        29.78R
US460-WAKEFLD  FAIR      30  14  51 SW7       29.76R
$$

VAZ020-022-025-037-045-100800-
WEST CENTRAL AND SOUTHWEST VIRGINIA

CITY           SKY/WX    TMP DP  RH WIND       PRES   REMARKS
STAUNTON*      CLOUDY    30  14  50 W6        29.72S
WAYNESBORO*    CLOUDY    24  11  58 W3        29.70S
HOT SPRINGS VA FLURRIES  14  14 100 W18G25    29.55S WCI  -3
LYNCHBURG      FAIR      24  11  57 W6        29.76S
DANVILLE       FAIR      24  13  62 W6        29.81S
SOUTH BOSTON*  FAIR      26  10  50 SW7       29.80S
MARTINSVILLE   FAIR      20  10  65 CALM      29.83S
ROANOKE        MOCLDY    25  12  58 NW28G36   29.80S WCI   9
BLACKSBURG     FLURRIES  21  15  78 W12G21    29.77S WCI   9
DUBLIN*        FLURRIES  22  16  76 W13       29.77S WCI  10
MARION*        LGT SNOW  19  13  77 W18G24    29.78S WCI   3
HILLSVILLE*    CLOUDY    17  11  79 W20G31    29.70S WCI   0
RICHLANDS*     LGT SNOW  17  11  79 W6G16     29.78S
WISE*          FLURRIES  18  10  73 W8G16     29.80F
ABINGDON*      FLURRIES  22  15  74 W7        29.84S
$$

MDZ021>025-VAZ099-100-100800-
SOUTHERN MARYLAND AND THE DELMARVA PENINSULA

CITY           SKY/WX    TMP DP  RH WIND       PRES   REMARKS
PATUXENT RIVER CLOUDY    33  20  58 NW14G21   29.70R WCI  23
BAY BRIDGE APT   N/A     32  23  69 NW9G20    29.69R
LEONARDTOWN    CLOUDY    32  21  64 W5        29.71R
DOVER          CLOUDY    33  29  87 W13       29.63S WCI  23
GEORGETOWN     CLOUDY    33  27  78 W7        29.65F
EASTON         CLOUDY    32  26  76 NW14      29.71S WCI  22
CAMBRIDGE      CLOUDY    32  23  69 NW9       29.67S
SALISBURY      MOCLDY    32  25  75 W9        29.66S
OCEAN CITY     CLOUDY    33  28  81 W5        29.66S
WALLOPS ISLAND MOCLDY    34  29  82 W6        29.68S
ACCOMACK*      CLOUDY    34  28  80 NW12      29.69R
$$

NCZ012>017-030>032-100800-
NORTH CENTRAL AND EASTERN NORTH CAROLINA

CITY           SKY/WX    TMP DP  RH WIND       PRES   REMARKS
ROANOKE RAPIDS FAIR      30  14  51 W10       29.80S WCI  21
RALEIGH        PTCLDY    28  13  53 W3        29.83F
ELIZABETH CITY CLEAR     34  20  56 W14G21    29.76R WCI  25
AHOSKIE*       PTCLDY    29  14  52 W5        29.80R
EDENTON*       CLEAR     36  21  55 W12       29.79R
CURRITUCK*     CLEAR     36  21  55 SW9       29.75S
KILL DEVIL HLS CLEAR     37  22  54 W13G23    29.74S
MANTEO         MOCLDY    37  25  61 W13       29.77R
CAPE HATTERAS  MOCLDY    40  23  50 W13G26    29.79S
TARBORO*       FAIR      31  16  54 W7        29.83S
GOLDSBORO      PTCLDY    30  16  55 W9        29.83R
WASHINGTON     CLEAR     32  15  50 W9        29.82R
GREENVILLE     PTCLDY    32  18  55 W3        29.85S
NEW BERN       CLOUDY    36  16  44 W12G20    29.84R
WILMINGTON     MOCLDY    37  25  61 W14       29.87R
$$

VAZ048-100800-
ELSEWHERE

CITY           SKY/WX    TMP DP  RH WIND       PRES   REMARKS
HARRISBURG PA  CLOUDY    30  24  78 W13       29.63S WCI  20
BALTIMORE      CLOUDY    29  22  75 W17       29.67S WCI  17
ANNAPOLIS      CLOUDY    31  22  69 NW9       29.68S
ANDREWS AFB    MIX PCPN  30  19  62 NW18G24   29.68S WCI  18
PHILADELPHIA   CLOUDY    34  28  79 W9        29.63S
HENDERSON NC   CLEAR     27  11  51 W5        29.80S
GREENSBORO     CLEAR     24  11  57 W8        29.80S
ROCKY MOUNT    PTCLDY    29  15  56 W6        29.82S
$$

VAZ100-100800-
MARINE

STATION/POSITION TIME  TEMP    WIND        PRES    WAVE   SWELL
                       AIR SEA DIR/SP/G            HT/PER HT/PER
                 (UTC) (F)     (DEG/KT/KT) (MB)    (FT/S) (FT/S)
BRANDYWINE LGT   0600   34     310/ 17/ 21 1003.5F
CAPE MAY NJ      0600   35 42  300/ 12/ 18 1003.2F
LEWES DE         0600   35 41  280/ 13/ 17 1003.8F
15NM E FENWICK I 0650   36 43              1003.5R   5/13
OCEAN-CITY-INLET 0600   35 41  310/  8/ 11 1003.4S
WACHAPREAGUE VA  0600   34 43  250/  2/  4 1005.3S
GOOSES REEF MD   0700   32 40  320/ 16/ 19 1006.5R   2/ 3
COVE POINT MD    0600   32     330/ 12/ 16 1005.9R
SOLOMONS ISLAND  0600   34 40  310/  6/ 13   N/A
BISHOPS HEAD MD  0606   35 40  310/ 15/ 17 1004.2F
PINEY POINT MD   0600          330/ 14/ 17   N/A
POTOMAC MD       0700   35 40  330/ 14/ 17 1004.6R   2/ 3
CAMBRIDGE MD     0600   34 40  290/ 10/ 15 1004.2F
LEWISETTA VA     0600   35 41  330/  9/ 12 1005.4S
RAPPAHANNOCK LGT 0600          250/ 19/ 20 1005.6F
STINGRAY PT      0700   34 41  270/ 14/ 16 1005.7R   1/ 2
YORK RVR RNG VA  0600   35     280/ 21/ 23 1005.0F
YORKTOWN VA      0600   34 43  260/ 11/ 17 1005.9F
JAMESTOWN VA     0700   31 43  250/ 12/ 16   N/A     1
DOMINION TERM VA 0600   35     290/ 18/ 22 1006.3S
KIPTOPEKE VA     0600      43  280/ 19/ 23   N/A
CHES BAY BRIDGE  0600   36 43  250/ 22/ 25 1005.8F
CAPE HENRY VA    0600   35     260/ 12/ 17   N/A
CHESAPEAKE LGHT  0600   37     270/ 22/ 25 1006.5F
WILLOUBY STN VA  0600   35     280/ 21/ 24   N/A
CAPE HENRY BUOY  0628      45                N/A     5/13   3/13
1ST LANDING BUOY 0700      43                N/A     3/ 6
CAPE CHARLES BUO 0626      44                N/A     5/14   5/14
OFFSHORE WE BUOY 0621      46                N/A     6/12   5/12
64NM E OF VA BCH 0650   41 50  280/ 19/ 23 1005.7R   9/13   7/13
DUCK PIER NC     0600   38     260/ 19/ 21 1006.8R
44100 DUCK FRF   0624      47                N/A     5/13   5/13
44056 DUCK FRF   0611      44                N/A     4/13   3/13
OREGON INLET NC  0600   39 46  260/ 14/ 18 1007.7R
HATTERAS NC      0600   42 52  270/ 21/ 26 1008.1R
DIAMOND SHLS NC  0650   45 73  290/ 21/ 27 1008.1F   9/ 7   5/14
$$




USA.gov is the U.S. government's official web portal to all federal, state and local government web resources and services.